KC5AYO Weather Reports


Display with metric or nautical units.
time (UTC)temp
F
wind
direction
speed
MPH
gust
MPH
rain 1hr
in
rain 24hr
in
rain mn
in
humidity
%
barometer
mb
20260902005502 83 185 0.0 0.0 0.00 0.00 0.00 79 1014.3
20260902005003 83 185 0.0 0.0 0.00 0.00 0.00 80 1014.3
20260902004502 83 185 0.0 0.0 0.00 0.00 0.00 79 1014.3
20260902004003 84 185 0.0 0.0 0.00 0.00 0.00 79 1014.3
20260902003503 84 185 0.0 0.0 0.00 0.00 0.00 78 1014.3
20260902003001 84 185 0.0 0.0 0.00 0.00 0.00 76 1014.3
20260902002500 85 185 0.0 0.0 0.00 0.00 0.00 76 1014.3
20260902002102 85 185 0.0 0.0 0.00 0.00 0.00 75 1014.3
20260902001605 85 185 0.0 0.0 0.00 0.00 0.00 74 1014.3
20260902001059 85 185 0.0 0.0 0.00 0.00 0.00 74 1014.3
20260902000559 86 185 0.0 0.0 0.00 0.00 0.00 73 1014.3
20260902000100 86 185 0.0 0.0 0.00 0.00 0.00 72 1014.3
20260901235559 87 185 0.0 0.0 0.00 0.00 0.00 72 1014.3
20260901235058 88 185 0.0 0.0 0.00 0.00 0.00 70 1014.3
20260901234607 88 185 0.0 0.0 0.00 0.00 0.00 68 1014.3
20260901234104 89 174 0.0 0.0 0.00 0.00 0.00 66 1014.4
20260901233558 89 182 0.0 0.0 0.00 0.00 0.00 64 1014.3
20260901233057 89 198 0.0 0.0 0.00 0.00 0.00 64 1014.4
20260901232557 90 198 0.0 0.0 0.00 0.00 0.00 64 1014.5
20260901232102 90 180 0.0 2.0 0.00 0.00 0.00 63 1014.5
20260901231607 90 180 0.0 2.0 0.00 0.00 0.00 63 1014.4
20260901231057 90 144 0.0 2.0 0.00 0.00 0.00 63 1014.4
20260901230557 91 144 0.0 2.0 0.00 0.00 0.00 62 1014.4
20260901230108 91 133 0.0 2.0 0.00 0.00 0.00 60 1014.4
20260901225557 91 139 0.0 2.0 0.00 0.00 0.00 62 1014.3
20260901225056 91 156 0.0 2.0 0.00 0.00 0.00 60 1014.4
20260901224557 92 161 0.0 2.0 0.00 0.00 0.00 59 1014.3
20260901224100 92 178 0.0 2.0 0.00 0.00 0.00 60 1014.4
20260901223601 91 176 0.0 2.0 0.00 0.00 0.00 58 1014.4
20260901223056 92 170 0.0 2.0 0.00 0.00 0.00 58 1014.3
20260901222557 92 150 0.0 2.0 0.00 0.00 0.00 58 1014.3
20260901222057 92 227 0.0 2.0 0.00 0.00 0.00 60 1014.4
20260901221610 92 194 0.0 2.0 0.00 0.00 0.00 59 1014.3
20260901221055 92 116 0.0 2.0 0.00 0.00 0.00 58 1014.4
20260901220559 92 167 0.0 2.0 0.00 0.00 0.00 58 1014.4
20260901220057 92 270 0.0 0.0 0.00 0.00 0.00 61 1014.3
20260901215556 92 163 0.0 0.0 0.00 0.00 0.00 61 1014.3
20260901215055 92 281 0.0 2.0 0.00 0.00 0.00 58 1014.3
20260901214555 92 228 0.0 3.0 0.00 0.00 0.00 57 1014.3
20260901214054 92 220 0.0 2.0 0.00 0.00 0.00 56 1014.3
20260901213555 92 104 0.0 2.0 0.00 0.00 0.00 59 1014.3
20260901213055 92 299 0.0 3.0 0.00 0.00 0.00 57 1014.3
20260901212552 92 301 0.0 3.0 0.00 0.00 0.00 57 1014.3
20260901212053 92 297 0.0 3.0 0.00 0.00 0.00 58 1014.4
20260901211552 92 289 0.0 2.0 0.00 0.00 0.00 57 1014.4
20260901211052 92 299 0.0 2.0 0.00 0.00 0.00 58 1014.3
20260901210553 93 279 0.0 2.0 0.00 0.00 0.00 56 1014.4
20260901210051 93 150 0.0 2.0 0.00 0.00 0.00 59 1014.5
20260901205551 93 172 0.0 2.0 0.00 0.00 0.00 58 1014.5
20260901205052 93 201 0.0 2.0 0.00 0.00 0.00 57 1014.6
20260901204550 93 78 0.0 3.0 0.00 0.00 0.00 56 1014.6
20260901204049 93 279 0.0 3.0 0.00 0.00 0.00 58 1014.6
20260901203551 93 200 0.0 3.0 0.00 0.00 0.00 56 1014.7
20260901203055 93 136 0.0 2.0 0.00 0.00 0.00 57 1014.6
20260901202548 93 163 0.0 3.0 0.00 0.00 0.00 55 1014.7
20260901202051 93 299 0.0 3.0 0.00 0.00 0.00 54 1014.7
20260901201550 93 186 1.0 3.0 0.00 0.00 0.00 55 1014.8
20260901201047 93 254 0.0 3.0 0.00 0.00 0.00 57 1014.8
20260901200547 93 200 0.0 3.0 0.00 0.00 0.00 57 1014.8
20260901200047 93 302 0.0 2.0 0.00 0.00 0.00 56 1014.8
20260901195546 93 316 0.0 2.0 0.00 0.00 0.00 54 1014.8
20260901195045 94 264 0.0 3.0 0.00 0.00 0.00 56 1014.8
20260901194546 94 128 0.0 3.0 0.00 0.00 0.00 54 1014.9
20260901194044 94 336 0.0 3.0 0.00 0.00 0.00 54 1014.9
20260901193544 94 301 0.0 2.0 0.00 0.00 0.00 55 1015.0
20260901193044 93 236 0.0 3.0 0.00 0.00 0.00 55 1015.1
20260901192542 93 182 0.0 3.0 0.00 0.00 0.00 54 1015.1
20260901192042 94 306 0.0 4.0 0.00 0.00 0.00 54 1015.2
20260901191544 94 296 0.0 4.0 0.00 0.00 0.00 54 1015.1
20260901191042 93 138 0.0 3.0 0.00 0.00 0.00 53 1015.3
20260901190541 93 285 0.0 3.0 0.00 0.00 0.00 54 1015.2
20260901190042 93 304 0.0 3.0 0.00 0.00 0.00 56 1015.4
20260901185542 94 164 0.0 4.0 0.00 0.00 0.00 53 1015.4
20260901185041 93 9 0.0 4.0 0.00 0.00 0.00 54 1015.5
20260901184541 94 263 0.0 3.0 0.00 0.00 0.00 54 1015.5
20260901184042 93 94 0.0 4.0 0.00 0.00 0.00 54 1015.6
20260901183540 94 211 1.0 4.0 0.00 0.00 0.00 54 1015.6
20260901183059 93 167 0.0 3.0 0.00 0.00 0.00 59 1015.6
20260901182541 93 313 0.0 3.0 0.00 0.00 0.00 58 1015.6
20260901182040 93 299 0.0 2.0 0.00 0.00 0.00 58 1015.6
20260901181540 93 305 0.0 3.0 0.00 0.00 0.00 58 1015.7
20260901181039 93 300 1.0 3.0 0.00 0.00 0.00 56 1015.7
20260901180540 94 117 0.0 3.0 0.00 0.00 0.00 57 1015.7
20260901180038 93 178 0.0 3.0 0.00 0.00 0.00 57 1015.7
20260901175538 93 327 0.0 3.0 0.00 0.00 0.00 59 1015.7
20260901175037 93 155 0.0 2.0 0.00 0.00 0.00 58 1015.7
20260901174536 93 163 0.0 4.0 0.00 0.00 0.00 56 1015.9
20260901174036 93 317 0.0 4.0 0.00 0.00 0.00 60 1016.0
20260901173535 92 5 0.0 4.0 0.00 0.00 0.00 62 1016.0
20260901173037 92 186 1.0 5.0 0.00 0.00 0.00 59 1016.0
20260901172536 92 143 0.0 3.0 0.00 0.00 0.00 59 1016.0
20260901172033 92 251 0.0 3.0 0.00 0.00 0.00 62 1016.1
20260901171546 91 59 0.0 3.0 0.00 0.00 0.00 64 1016.1
20260901171034 91 182 0.0 4.0 0.00 0.00 0.00 62 1016.1
20260901170530 91 198 1.0 4.0 0.00 0.00 0.00 62 1016.1
20260901170042 91 225 0.0 3.0 0.00 0.00 0.00 63 1016.1
20260901165527 90 338 0.0 2.0 0.00 0.00 0.00 65 1016.2
20260901165026 90 67 0.0 2.0 0.00 0.00 0.00 63 1016.3
20260901164525 90 134 0.0 2.0 0.00 0.00 0.00 65 1016.3
20260901164025 90 306 0.0 2.0 0.00 0.00 0.00 64 1016.3
20260901163522 89 226 0.0 2.0 0.00 0.00 0.00 64 1016.4
20260901163027 89 219 0.0 2.0 0.00 0.00 0.00 69 1016.4
20260901162520 89 125 0.0 2.0 0.00 0.00 0.00 67 1016.4
20260901162020 88 308 0.0 2.0 0.00 0.00 0.00 64 1016.5
20260901161516 88 257 0.0 2.0 0.00 0.00 0.00 68 1016.5
20260901161016 87 304 0.0 3.0 0.00 0.00 0.00 69 1016.7
20260901160517 87 303 0.0 3.0 0.00 0.00 0.00 70 1016.8
20260901160015 86 302 0.0 5.0 0.00 0.00 0.00 71 1016.8
20260901155514 86 308 0.0 5.0 0.00 0.00 0.00 69 1016.7
20260901155014 86 329 1.0 2.0 0.00 0.00 0.00 69 1016.8
20260901154513 86 16 0.0 2.0 0.00 0.00 0.00 74 1016.8
20260901154012 86 289 0.0 2.0 0.00 0.00 0.00 70 1016.8
20260901153511 85 341 0.0 3.0 0.00 0.00 0.00 70 1016.7
20260901153009 85 15 0.0 3.0 0.00 0.00 0.00 70 1016.8
20260901152511 85 47 0.0 2.0 0.00 0.00 0.00 73 1016.8
20260901152010 85 283 0.0 2.0 0.00 0.00 0.00 72 1016.7
20260901151506 84 121 0.0 2.0 0.00 0.00 0.00 72 1016.7
20260901151005 84 306 0.0 2.0 0.00 0.00 0.00 73 1016.7
20260901150503 84 163 0.0 2.0 0.00 0.00 0.00 73 1016.6
20260901150006 84 5 0.0 4.0 0.00 0.00 0.00 76 1016.6
20260901145502 83 105 0.0 4.0 0.00 0.00 0.00 74 1016.7
20260901145100 83 188 0.0 3.0 0.00 0.00 0.00 76 1016.7
20260901144600 83 271 0.0 4.0 0.00 0.00 0.00 77 1016.7
20260901144102 82 209 0.0 4.0 0.00 0.00 0.00 76 1016.8
20260901143558 82 124 1.0 4.0 0.00 0.00 0.00 76 1016.8
20260901143106 82 329 0.0 3.0 0.00 0.00 0.00 77 1016.7
20260901142555 82 178 0.0 3.0 0.00 0.00 0.00 78 1016.8
20260901142054 81 189 0.0 2.0 0.00 0.00 0.00 78 1016.9
20260901141602 81 220 0.0 2.0 0.00 0.00 0.00 78 1016.8
20260901141054 81 13 0.0 2.0 0.00 0.00 0.00 79 1016.8
20260901140551 80 78 0.0 3.0 0.00 0.00 0.00 79 1017.0
20260901140050 80 159 0.0 3.0 0.00 0.00 0.00 81 1016.8
20260901135549 79 229 0.0 3.0 0.00 0.00 0.00 82 1016.9
20260901135048 79 147 0.0 2.0 0.00 0.00 0.00 83 1017.0
20260901134547 79 182 0.0 2.0 0.00 0.00 0.00 83 1017.0
20260901134045 78 186 0.0 1.0 0.00 0.00 0.00 83 1017.0
20260901133547 78 216 0.0 0.0 0.00 0.00 0.00 83 1017.1
20260901133047 78 166 0.0 0.0 0.00 0.00 0.00 84 1017.3
20260901132541 77 192 0.0 0.0 0.00 0.00 0.00 84 1017.2
20260901132040 77 15 0.0 0.0 0.00 0.00 0.00 85 1017.3
20260901131541 76 200 0.0 0.0 0.00 0.00 0.00 86 1017.1
20260901131042 76 259 0.0 0.0 0.00 0.00 0.00 86 1017.0
20260901130537 76 213 0.0 0.0 0.00 0.00 0.00 87 1017.0
20260901130037 76 213 0.0 0.0 0.00 0.00 0.00 87 1017.0
20260901125536 75 213 0.0 0.0 0.00 0.00 0.00 87 1017.0
20260901125036 75 213 0.0 0.0 0.00 0.00 0.00 87 1017.0
20260901124536 75 236 0.0 0.0 0.00 0.00 0.00 87 1017.1
20260901124035 75 236 0.0 0.0 0.00 0.00 0.00 87 1017.0
20260901123535 75 200 0.0 0.0 0.00 0.00 0.00 87 1017.0
20260901123039 74 174 0.0 0.0 0.00 0.00 0.00 88 1016.9
20260901122533 74 161 0.0 0.0 0.00 0.00 0.00 88 1016.9
20260901122032 74 180 0.0 0.0 0.00 0.00 0.00 89 1016.9
20260901121531 73 190 0.0 0.0 0.00 0.00 0.00 89 1016.9
20260901121034 73 141 0.0 0.0 0.00 0.00 0.00 90 1016.9
20260901120530 73 145 0.0 0.0 0.00 0.00 0.00 90 1016.9
20260901120030 73 144 0.0 0.0 0.00 0.00 0.00 90 1016.8
20260901115529 73 148 0.0 0.0 0.00 0.00 0.00 89 1016.7
20260901115035 73 148 0.0 0.0 0.00 0.00 0.00 89 1016.6
20260901114529 73 148 0.0 0.0 0.00 0.00 0.00 89 1016.6
20260901114027 73 148 0.0 0.0 0.00 0.00 0.00 89 1016.5
20260901113527 73 153 0.0 0.0 0.00 0.00 0.00 89 1016.6
20260901113026 73 181 0.0 0.0 0.00 0.00 0.00 89 1016.5
20260901112528 73 178 0.0 0.0 0.00 0.00 0.00 89 1016.4
20260901112028 73 178 0.0 0.0 0.00 0.00 0.00 89 1016.2
20260901111526 73 180 0.0 0.0 0.00 0.00 0.00 89 1016.1
20260901111025 73 129 0.0 0.0 0.00 0.00 0.00 89 1016.2
20260901110524 73 129 0.0 0.0 0.00 0.00 0.00 89 1016.1
20260901110024 73 129 0.0 0.0 0.00 0.00 0.00 89 1016.0
20260901105524 73 129 0.0 0.0 0.00 0.00 0.00 89 1016.0
20260901105024 73 129 0.0 0.0 0.00 0.00 0.00 89 1016.1
20260901104526 73 128 0.0 0.0 0.00 0.00 0.00 89 1016.1
20260901104026 73 127 0.0 0.0 0.00 0.00 0.00 88 1016.1
20260901103523 73 123 0.0 0.0 0.00 0.00 0.00 88 1016.0
20260901103021 73 123 0.0 0.0 0.00 0.00 0.00 88 1015.8
20260901102521 73 123 0.0 0.0 0.00 0.00 0.00 89 1015.8
20260901102020 73 123 0.0 0.0 0.00 0.00 0.00 88 1015.7
20260901101520 74 123 0.0 0.0 0.00 0.00 0.00 88 1015.8
20260901101022 74 123 0.0 0.0 0.00 0.00 0.00 88 1015.7
20260901100521 74 123 0.0 0.0 0.00 0.00 0.00 88 1015.7
20260901100018 74 123 0.0 0.0 0.00 0.00 0.00 89 1015.7
20260901095519 74 115 0.0 1.0 0.00 0.00 0.00 89 1015.6
20260901095019 74 115 0.0 1.0 0.00 0.00 0.00 89 1015.7
20260901094519 73 186 0.0 0.0 0.00 0.00 0.00 90 1015.6
20260901094019 73 186 0.0 0.0 0.00 0.00 0.00 91 1015.5
20260901093518 73 186 0.0 0.0 0.00 0.00 0.00 91 1015.5
20260901093017 73 186 0.0 0.0 0.00 0.00 0.00 91 1015.5
20260901092517 73 186 0.0 0.0 0.00 0.00 0.00 91 1015.5
20260901092017 73 186 0.0 0.0 0.00 0.00 0.00 91 1015.4
20260901091517 73 186 0.0 0.0 0.00 0.00 0.00 91 1015.4
20260901091016 73 186 0.0 0.0 0.00 0.00 0.00 90 1015.5
20260901090516 73 186 0.0 0.0 0.00 0.00 0.00 90 1015.5
20260901090018 73 186 0.0 0.0 0.00 0.00 0.00 91 1015.4
20260901085516 73 186 0.0 0.0 0.00 0.00 0.00 91 1015.4
20260901085016 73 186 0.0 0.0 0.00 0.00 0.00 90 1015.4
20260901084515 73 186 0.0 0.0 0.00 0.00 0.00 91 1015.4
20260901084015 73 186 0.0 0.0 0.00 0.00 0.00 91 1015.3
20260901083515 73 186 0.0 0.0 0.00 0.00 0.00 91 1015.4
20260901083015 73 186 0.0 0.0 0.00 0.00 0.00 91 1015.4
20260901082514 73 186 0.0 0.0 0.00 0.00 0.00 91 1015.4
20260901082016 73 186 0.0 0.0 0.00 0.00 0.00 91 1015.3
20260901081514 73 186 0.0 0.0 0.00 0.00 0.00 92 1015.3
20260901081014 73 186 0.0 0.0 0.00 0.00 0.00 92 1015.2
20260901080513 73 186 0.0 0.0 0.00 0.00 0.00 93 1015.1
20260901080013 73 186 0.0 0.0 0.00 0.00 0.00 93 1015.2
20260901075513 73 186 0.0 0.0 0.00 0.00 0.00 93 1015.2
20260901075018 73 186 0.0 0.0 0.00 0.00 0.00 93 1015.1
20260901074512 73 186 0.0 0.0 0.00 0.00 0.00 93 1015.1
20260901074017 73 186 0.0 0.0 0.00 0.00 0.00 92 1015.1
20260901073511 73 186 0.0 0.0 0.00 0.00 0.00 92 1015.0
20260901073010 73 186 0.0 0.0 0.00 0.00 0.00 92 1015.0
20260901072509 74 186 0.0 0.0 0.00 0.00 0.00 92 1015.0
20260901072008 74 186 0.0 0.0 0.00 0.00 0.00 92 1015.0
20260901071508 74 186 0.0 0.0 0.00 0.00 0.00 92 1015.0
20260901071007 74 186 0.0 0.0 0.00 0.00 0.00 92 1015.0
20260901070507 74 186 0.0 0.0 0.00 0.00 0.00 92 1015.1
20260901070010 74 186 0.0 0.0 0.00 0.00 0.00 92 1015.1
20260901065507 74 186 0.0 0.0 0.00 0.00 0.00 92 1015.2
20260901065007 74 186 0.0 0.0 0.00 0.00 0.00 92 1015.2
20260901064507 74 188 0.0 0.0 0.00 0.00 0.00 92 1015.2
20260901064007 74 185 0.0 0.0 0.00 0.00 0.00 92 1015.1
20260901063505 74 167 0.0 0.0 0.00 0.00 0.00 92 1015.2
20260901063011 74 167 0.0 0.0 0.00 0.00 0.00 92 1015.2
20260901062503 74 167 0.0 0.0 0.00 0.00 0.00 92 1015.4
20260901062003 74 167 0.0 0.0 0.00 0.00 0.00 92 1015.5
20260901061502 74 167 0.0 0.0 0.00 0.00 0.00 92 1015.5
20260901061002 74 167 0.0 0.0 0.00 0.00 0.00 92 1015.5
20260901060500 74 167 0.0 0.0 0.00 0.00 0.00 92 1015.5
20260901060002 75 167 0.0 0.0 0.00 0.00 0.00 92 1015.6
20260901055600 75 167 0.0 0.0 0.00 0.00 0.00 92 1015.7
20260901055100 75 167 0.0 0.0 0.00 0.00 0.00 92 1015.6
20260901054600 75 167 0.0 0.0 0.00 0.00 0.00 92 1015.7
20260901054103 75 167 0.0 0.0 0.00 0.00 0.00 92 1015.7
20260901053600 75 167 0.0 0.0 0.00 0.00 0.00 92 1015.7
20260901053105 75 167 0.0 0.0 0.00 0.00 0.00 92 1015.7
20260901052559 75 167 0.0 0.0 0.00 0.00 0.00 92 1015.7
20260901052058 75 167 0.0 0.0 0.00 0.00 0.00 92 1015.6
20260901051606 75 167 0.0 0.0 0.00 0.00 0.00 93 1015.7
20260901051058 75 167 0.0 0.0 0.00 0.00 0.00 93 1015.6
20260901050558 75 167 0.0 0.0 0.00 0.00 0.00 93 1015.6
20260901050058 75 167 0.0 0.0 0.00 0.00 0.00 93 1015.6
20260901045558 75 167 0.0 0.0 0.00 0.00 0.00 92 1015.6
20260901045056 75 167 0.0 0.0 0.00 0.00 0.00 92 1015.6
20260901044604 75 167 0.0 0.0 0.00 0.00 0.00 92 1015.5
20260901044056 75 167 0.0 0.0 0.00 0.00 0.00 92 1015.6
20260901043556 75 167 0.0 0.0 0.00 0.00 0.00 93 1015.6
20260901043055 75 167 0.0 0.0 0.00 0.00 0.00 92 1015.6
20260901042554 75 167 0.0 0.0 0.00 0.00 0.00 91 1015.6
20260901042053 76 167 0.0 0.0 0.00 0.00 0.00 91 1015.6
20260901041615 76 167 0.0 0.0 0.00 0.00 0.00 91 1015.7
20260901041052 76 167 0.0 0.0 0.00 0.00 0.00 92 1015.6
20260901040552 76 167 0.0 0.0 0.00 0.00 0.00 92 1015.5
20260901040125 76 167 0.0 0.0 0.00 0.00 0.00 91 1015.5
20260901035551 76 167 0.0 0.0 0.00 0.00 0.00 91 1015.6
20260901035051 77 167 0.0 0.0 0.00 0.00 0.00 91 1015.6
20260901034551 76 167 0.0 0.0 0.00 0.00 0.00 90 1015.6
20260901034054 76 167 0.0 0.0 0.00 0.00 0.00 89 1015.7
20260901033554 77 167 0.0 0.0 0.00 0.00 0.00 89 1015.6
20260901033050 77 167 0.0 0.0 0.00 0.00 0.00 88 1015.7
20260901032551 77 167 0.0 0.0 0.00 0.00 0.00 88 1015.7
20260901032050 77 167 0.0 0.0 0.00 0.00 0.00 87 1015.8
20260901031550 78 167 0.0 0.0 0.00 0.00 0.00 87 1015.7
20260901031049 78 167 0.0 0.0 0.00 0.00 0.00 87 1015.8
20260901030549 78 167 0.0 0.0 0.00 0.00 0.00 87 1015.7
20260901030049 78 167 0.0 0.0 0.00 0.00 0.00 86 1015.8
20260901025549 78 167 0.0 0.0 0.00 0.00 0.00 86 1015.8
20260901025053 78 167 0.0 0.0 0.00 0.00 0.00 86 1015.8
20260901024553 78 167 0.0 0.0 0.00 0.00 0.00 86 1015.7
20260901024049 78 167 0.0 0.0 0.00 0.00 0.00 86 1015.7
20260901023549 79 167 0.0 0.0 0.00 0.00 0.00 86 1015.7
20260901023049 78 167 0.0 0.0 0.00 0.00 0.00 86 1015.7
20260901022548 78 167 0.0 0.0 0.00 0.00 0.00 86 1015.7
20260901022048 79 167 0.0 0.0 0.00 0.00 0.00 86 1015.7
20260901021548 79 167 0.0 0.0 0.00 0.00 0.00 86 1015.6
20260901021048 79 167 0.0 0.0 0.00 0.00 0.00 85 1015.5
20260901020548 79 167 0.0 0.0 0.00 0.00 0.00 84 1015.5
20260901020048 80 167 0.0 0.0 0.00 0.00 0.00 83 1015.5
20260901015548 80 167 0.0 0.0 0.00 0.00 0.00 82 1015.3
20260901015047 80 167 0.0 0.0 0.00 0.00 0.00 81 1015.4
20260901014547 80 167 0.0 0.0 0.00 0.00 0.00 81 1015.3
20260901014047 81 167 0.0 0.0 0.00 0.00 0.00 82 1015.2
20260901013547 80 167 0.0 0.0 0.00 0.00 0.00 82 1015.1
20260901013052 80 167 0.0 0.0 0.00 0.00 0.00 82 1015.0
20260901012545 80 167 0.0 0.0 0.00 0.00 0.00 82 1015.0
20260901012045 80 167 0.0 0.0 0.00 0.00 0.00 81 1015.1
20260901011545 81 167 0.0 0.0 0.00 0.00 0.00 80 1015.1
20260901011045 81 167 0.0 0.0 0.00 0.00 0.00 80 1015.1
20260901010545 81 167 0.0 0.0 0.00 0.00 0.00 79 1015.0
20260901010057 82 167 0.0 0.0 0.00 0.00 0.00 78 1015.0